Torna al catalogo

STARLINK-30345

AttivoComunicazioniVLEO
NORAD 57701·PAYLOAD·🇺🇸 United States

Lanciato Aug 27, 2023 da Cape Canaveral Space Force Station

Loading…

Prossimi Passaggi (prossime 24 ore)

TLE

AggiornatoSource: CelesTrak SupGP

Epoca: Sep 14, 2026, 22:28 UTC

1 57701C 23129D   26257.93659722 -.00042890  00000+0 -15537-2 0  2576
2 57701  43.0004 129.0570 0001395 270.6325 191.3261 15.27594633    19

Traccia STARLINK-30345 in tempo reale con AllMySat

Download on the App Store